Flag for Germany Weather past 2 weeks in Limburg an der Lahn, Hesse, Germany

34 °F


Feels Like: 30 °F
Forecast: 27 / 40 °F
Wind: 5 mph from North

Location: Hessen

Current Time: Nov 26, 2015 at 9:48:51 PM

Latest Report: Nov 26, 2015 at 8:50 PM

Visibility: 0 mi

Pressure: 30.12 "Hg

Humidity: 100%

Dew point: 34 °F

Location of Limburg an der LahnLocation

Historic Weather in Limburg an der Lahn — Graph


Limburg an der Lahn temperature yesterday

Maximum temperature yesterday: 36 °F (at 1:50 PM)
Minimum temperature yesterday: 32 °F (at 8:50 AM)
Average temperature yesterday: 34 °F

Past Weeks' High & Low Weather Summary

High55 °F (Nov 15, 2:20 PM)100% (Nov 12, 7:20 AM)30.33 "Hg (Nov 12, 7:20 AM)
Low28 °F (Nov 22, 4:50 PM)71% (Nov 18, 9:20 AM)29.36 "Hg (Nov 21, 11:50 AM)
Average41 °F95%29.92 "Hg
* Reported Nov 11 8:20 PM — Nov 26 8:20 PM, Limburg an der Lahn, Weather by CustomWeather, © 2015

Note: Actual official high and low records may vary slightly from our data, if they occured in-between our weather recording intervals... More about our weather records


Limburg an der Lahn weather history for previous 24 hours

Time TempWeatherWind HumidityBarometerVisibility
8:20 PM
Thu, Nov 26
34 °FMostly cloudy.3 mph100%30.12 "Hg4 mi
7:50 PM34 °FMostly cloudy.5 mph100%30.09 "Hg5 mi
7:20 PM36 °FDrizzle. Low clouds.2 mph100%30.09 "Hg2 mi
6:50 PM34 °FSleet. Overcast.5 mph100%30.09 "Hg2 mi
6:20 PM34 °FChilly.6 mph100%30.09 "Hg1 mi
5:50 PM36 °FLight rain. Partly cloudy.7 mph100%30.07 "Hg1 mi
5:20 PM36 °FPartly cloudy.7 mph100%30.07 "Hg4 mi
4:50 PM36 °FLight rain. Mostly cloudy.3 mph100%30.07 "Hg4 mi
4:20 PM36 °FMostly cloudy.5 mph100%30.04 "HgN/A
3:50 PM36 °FScattered clouds.5 mph100%30.04 "HgN/A
3:20 PM36 °FBroken clouds.8 mph100%30.01 "HgN/A
2:50 PM36 °FBroken clouds.8 mph100%30.01 "HgN/A
2:20 PM36 °FBroken clouds.7 mph100%30.01 "HgN/A
1:50 PM36 °FBroken clouds.8 mph100%30.01 "HgN/A
1:20 PM36 °FPartly sunny.7 mph100%29.98 "Hg4 mi
12:50 PM36 °FPartly sunny.5 mph100%29.98 "Hg5 mi
12:20 PM36 °FPartly sunny.8 mph100%29.98 "HgN/A
11:50 AM36 °FPartly sunny.10 mph100%29.98 "HgN/A
11:20 AM36 °FFog.12 mph100%29.95 "Hg2 mi
10:50 AM34 °FFog.9 mph100%29.95 "Hg1 mi
10:20 AM34 °FFog.10 mph100%29.92 "Hg0 mi
9:50 AM34 °FFog.13 mph100%29.92 "Hg1 mi
9:20 AM34 °FFog.10 mph100%29.92 "Hg0 mi
8:50 AM34 °FFog.9 mph100%29.89 "Hg1 mi
8:20 AM34 °FFog.9 mph100%29.89 "Hg1 mi
7:50 AM34 °FFog.9 mph100%29.86 "Hg1 mi
Weather by CustomWeather, © 2015

See weather overviewHow to use our weather pages